THOR ABLESTAR DEB, 38521

Orbit data source: Space-Track

THOR ABLESTAR DEB, 38521 is space debris in LEO originally from a launch on Sat, 28 Sep 1963 UTC launched from the Air Force Western Test Range (AFWTR). Debris objects in space refer to the collection of defunct objects orbiting the Earth. Examples of debris include non-operational satellites, rocket bodies, and fragments generated from explosions, collisions, or faulty payload assembly.

Loading next visibility...
Identifier
38521, 1963-038Q
Orbit
LEO
Country
Flag of USUS
Related business
Manufacturer
Unknown
Mission
Spacecraft
Bus & Motor
Unknown
Mass
Unknown
Launch date (UTC)
1963-09-28 (62 years ago)
Launch vehicle
Unknown
Launch site
Air Force Western Test Range (AFWTR)
Object type
Payload
Rocket body
Debris
Shape & HBR
Unknown
Radar Cross Section
Small (<0.1 m²)

Expand to show TLE details & history
Last TLE update: 23 hours ago

TLE from 23 hours ago
0 THOR ABLESTAR DEB
1 38521U 63038Q   25259.49278407  .00000070  00000-0  10094-3 0  9997
2 38521  89.9799 333.9013 0042231  52.5505 324.3429 13.45374591598706
Epoch: 2025-09-16T11:49Z
TLE epoch observation values (Epoch: 2025-09-16T11:49:36.543Z)
Latitude
16.59287°
Longitude
160.82269°
Altitude
1,066.058 km
Speed
7.333 km/s
True Right ascension
22h 15m 37s
True Declination
16° 30' 10"
Sunlit
Object was in full shadow at epoch
Visualization orbit readout
Latitude
Unknown
Longitude
Unknown
Altitude
Unknown
Speed
Unknown
Apparent Right ascension
Unknown
Apparent Declination
Unknown
Sunlit
N/A
Visualization observer readout
Local Sidereal Time
03:35:55
Azimuth
Unknown
Elevation
Unknown
Doppler factor
Unknown
Orbital elements
Apogee altitude
1,117.905 km
Perigee altitude
1,054.858 km
Semi-major axis
7,464.519 km
Eccentricity
0.00422
Inclination
89.9799°
RAAN
333.9013°
Arg. of periapsis
52.5505°
True anomaly
324.05959°
Mean anomaly
324.3429°
Eccentric anomaly
324.20136°
Mean motion
3.36543 °/min
Orbital period
106.97 mins
BSTAR
0.00010094
Loading maneuver chart data...
Computing Atmospheric mass density...

Documentation

Showing up to 5 results
|